When you browse on this site, cookies collect data to enhance your experience and personalize the content and advertising you see.
Visit our Privacy Policy to learn more. By continuing to use the site, you agree to this use of cookies and data.
  • In Spain
  • List of Countries
  • For 7 days
  • Water Temperature
  • Satellite Maps
  • Weather Map
  • Weather Widgets
  • user-avatar
    Login

    Hourly Weather Ho Chi Minh

    Today, 19 December, Wednesday

    Time Temperature Precipitation Wind Pressure Humidity
    00:00 +27°C° 0 mm 2 mps 759 mmHg 74%
    01:00 +27°C° 0 mm 1 mps 759 mmHg 75%
    02:00 +27°C° 0 mm 1 mps 759 mmHg 75%
    03:00 +27°C° 0 mm 1 mps 759 mmHg 76%
    04:00 +26°C° 0 mm 1 mps 759 mmHg 76%
    05:00 +27°C° 0 mm 1 mps 759 mmHg 76%
    06:00 +27°C° 0 mm 1 mps 759 mmHg 76%
    07:00 +27°C° 0 mm 1 mps 760 mmHg 76%
    08:00 +29°C° 0 mm 1 mps 760 mmHg 71%
    09:00 +30°C° 0 mm 1 mps 760 mmHg 65%
    10:00 +32°C° 0 mm 1 mps 760 mmHg 60%
    11:00 +33°C° 0 mm 1 mps 759 mmHg 56%
    12:00 +34°C° 0 mm 1 mps 759 mmHg 52%
    13:00 +34°C° 0 mm 1 mps 759 mmHg 51%
    14:00 +34°C° 0 mm 1 mps 758 mmHg 52%
    15:00 +34°C° 0 mm 1 mps 758 mmHg 53%
    16:00 +35°C° 0 mm 2 mps 757 mmHg 54%
    17:00 +32°C° 0 mm 2 mps 758 mmHg 59%
    18:00 +31°C° 0 mm 2 mps 758 mmHg 64%
    19:00 +30°C° 0 mm 3 mps 759 mmHg 69%
    20:00 +29°C° 0 mm 3 mps 759 mmHg 72%
    21:00 +29°C° 0 mm 3 mps 759 mmHg 74%
    22:00 +28°C° 0 mm 2 mps 759 mmHg 77%
    23:00 +28°C° 0 mm 2 mps 759 mmHg 78%

    Tomorrow, 20 December, Thursday

    Time Temperature Precipitation Wind Pressure Humidity
    00:00 +28°C° 0 mm 2 mps 759 mmHg 79%
    01:00 +28°C° 0 mm 2 mps 759 mmHg 80%
    02:00 +27°C° 0 mm 2 mps 759 mmHg 80%
    03:00 +27°C° 0 mm 2 mps 759 mmHg 81%
    04:00 +27°C° 0 mm 2 mps 759 mmHg 81%
    05:00 +27°C° 0 mm 2 mps 759 mmHg 81%
    06:00 +27°C° 0 mm 2 mps 759 mmHg 80%
    07:00 +27°C° 0 mm 1 mps 759 mmHg 80%
    08:00 +29°C° 0 mm 2 mps 759 mmHg 73%
    09:00 +31°C° 0 mm 2 mps 759 mmHg 66%
    10:00 +34°C° 0 mm 2 mps 759 mmHg 60%
    11:00 +34°C° 0 mm 2 mps 759 mmHg 58%
    12:00 +35°C° 0 mm 2 mps 758 mmHg 57%
    13:00 +35°C° 0 mm 2 mps 758 mmHg 55%
    14:00 +35°C° 0.2 mm 2 mps 757 mmHg 57%
    15:00 +35°C° 0.2 mm 2 mps 756 mmHg 58%
    16:00 +35°C° 0.2 mm 2 mps 756 mmHg 60%
    17:00 +33°C° 0.2 mm 3 mps 756 mmHg 66%
    18:00 +30°C° 0.2 mm 3 mps 757 mmHg 73%
    19:00 +29°C° 0.2 mm 3 mps 757 mmHg 80%
    20:00 +28°C° 0.1 mm 3 mps 757 mmHg 82%
    21:00 +28°C° 0.1 mm 3 mps 758 mmHg 84%
    22:00 +27°C° 0.1 mm 2 mps 758 mmHg 86%
    23:00 +27°C° 0 mm 2 mps 758 mmHg 86%

    Day after tomorrow, 21 December, Friday

    Time Temperature Precipitation Wind Pressure Humidity
    00:00 +27°C° 0 mm 2 mps 758 mmHg 87%
    01:00 +27°C° 0 mm 2 mps 758 mmHg 87%
    02:00 +27°C° 0 mm 2 mps 757 mmHg 88%
    03:00 +26°C° 0 mm 2 mps 757 mmHg 88%
    04:00 +26°C° 0 mm 1 mps 757 mmHg 89%
    05:00 +26°C° 0 mm 1 mps 757 mmHg 88%
    06:00 +27°C° 0 mm 1 mps 758 mmHg 87%
    07:00 +27°C° 0 mm 1 mps 758 mmHg 87%
    08:00 +29°C° 0 mm 1 mps 758 mmHg 79%
    09:00 +30°C° 0 mm 1 mps 758 mmHg 71%
    10:00 +32°C° 0 mm 1 mps 759 mmHg 63%
    11:00 +33°C° 0 mm 1 mps 758 mmHg 59%
    12:00 +34°C° 0 mm 1 mps 757 mmHg 56%
    13:00 +35°C° 0 mm 1 mps 756 mmHg 52%
    14:00 +36°C° 0 mm 2 mps 756 mmHg 53%
    15:00 +35°C° 0 mm 2 mps 755 mmHg 55%
    16:00 +35°C° 0 mm 2 mps 755 mmHg 57%
    17:00 +32°C° 0.2 mm 2 mps 755 mmHg 62%
    18:00 +31°C° 0.2 mm 2 mps 756 mmHg 68%
    19:00 +29°C° 0.2 mm 2 mps 756 mmHg 74%
    20:00 +29°C° 0.5 mm 2 mps 757 mmHg 78%
    21:00 +28°C° 0.5 mm 3 mps 757 mmHg 83%
    22:00 +27°C° 0.5 mm 3 mps 758 mmHg 87%
    23:00 +27°C° 0.2 mm 3 mps 757 mmHg 87%

    22 December, Saturday

    Time Temperature Precipitation Wind Pressure Humidity
    00:00 +27°C° 0.2 mm 2 mps 757 mmHg 88%
    01:00 +27°C° 0.2 mm 2 mps 757 mmHg 88%
    02:00 +27°C° 0 mm 2 mps 757 mmHg 89%
    03:00 +26°C° 0 mm 2 mps 756 mmHg 90%
    04:00 +26°C° 0 mm 1 mps 756 mmHg 91%
    05:00 +26°C° 0 mm 1 mps 756 mmHg 90%
    06:00 +27°C° 0 mm 1 mps 757 mmHg 89%
    07:00 +27°C° 0 mm 1 mps 757 mmHg 88%
    08:00 +29°C° 0 mm 1 mps 757 mmHg 80%
    09:00 +30°C° 0 mm 1 mps 758 mmHg 73%
    10:00 +32°C° 0 mm 1 mps 758 mmHg 65%
    11:00 +33°C° 0 mm 1 mps 757 mmHg 62%
    12:00 +34°C° 0 mm 2 mps 756 mmHg 59%
    13:00 +35°C° 0 mm 2 mps 755 mmHg 57%
    14:00 +35°C° 0 mm 2 mps 755 mmHg 57%
    15:00 +35°C° 0 mm 2 mps 755 mmHg 57%
    16:00 +35°C° 0 mm 2 mps 754 mmHg 58%
    17:00 +32°C° 0.3 mm 2 mps 755 mmHg 62%
    18:00 +31°C° 0.3 mm 2 mps 756 mmHg 66%
    19:00 +30°C° 0.3 mm 2 mps 756 mmHg 71%
    20:00 +29°C° 0.6 mm 2 mps 757 mmHg 75%
    21:00 +29°C° 0.6 mm 2 mps 757 mmHg 79%
    22:00 +28°C° 0.6 mm 2 mps 757 mmHg 83%
    23:00 +28°C° 0.7 mm 2 mps 757 mmHg 86%

    23 December, Sunday

    Time Temperature Precipitation Wind Pressure Humidity
    00:00 +27°C° 0.7 mm 2 mps 757 mmHg 88%
    01:00 +27°C° 0.7 mm 2 mps 756 mmHg 91%
    02:00 +27°C° 0 mm 1 mps 756 mmHg 92%
    03:00 +26°C° 0 mm 1 mps 756 mmHg 92%
    04:00 +26°C° 0 mm 1 mps 755 mmHg 93%
    05:00 +26°C° 0 mm 1 mps 756 mmHg 92%
    06:00 +27°C° 0 mm 1 mps 756 mmHg 91%
    07:00 +27°C° 0 mm 1 mps 757 mmHg 91%
    08:00 +28°C° 0 mm 1 mps 757 mmHg 84%
    09:00 +29°C° 0 mm 1 mps 757 mmHg 78%
    10:00 +31°C° 0 mm 1 mps 757 mmHg 72%
    11:00 +32°C° 0.1 mm 2 mps 756 mmHg 67%
    12:00 +32°C° 0.1 mm 2 mps 756 mmHg 63%
    13:00 +34°C° 0.1 mm 2 mps 755 mmHg 59%
    14:00 +34°C° 0.5 mm 3 mps 754 mmHg 62%
    15:00 +33°C° 0.5 mm 3 mps 754 mmHg 65%
    16:00 +32°C° 0.5 mm 4 mps 754 mmHg 68%
    17:00 +30°C° 0.5 mm 3 mps 755 mmHg 74%
    18:00 +29°C° 0.5 mm 3 mps 755 mmHg 79%
    19:00 +28°C° 0.5 mm 3 mps 756 mmHg 85%
    20:00 +27°C° 0.1 mm 2 mps 756 mmHg 84%
    21:00 +27°C° 0.1 mm 2 mps 757 mmHg 82%
    22:00 +27°C° 0.1 mm 1 mps 757 mmHg 81%
    23:00 +27°C° 0.1 mm 1 mps 757 mmHg 83%

    24 December, Monday

    Time Temperature Precipitation Wind Pressure Humidity
    00:00 +27°C° 0.1 mm 1 mps 756 mmHg 84%
    01:00 +26°C° 0.1 mm 1 mps 756 mmHg 85%
    02:00 +26°C° 0 mm 1 mps 756 mmHg 86%
    03:00 +26°C° 0 mm 1 mps 755 mmHg 87%
    04:00 +26°C° 0 mm 1 mps 755 mmHg 88%
    05:00 +26°C° 0 mm 1 mps 756 mmHg 87%
    06:00 +26°C° 0 mm 1 mps 756 mmHg 87%
    07:00 +26°C° 0 mm 1 mps 757 mmHg 87%
    08:00 +28°C° 0 mm 2 mps 757 mmHg 80%
    09:00 +29°C° 0 mm 2 mps 757 mmHg 73%
    10:00 +31°C° 0 mm 2 mps 757 mmHg 66%
    11:00 +32°C° 0.1 mm 2 mps 756 mmHg 62%
    12:00 +33°C° 0.1 mm 1 mps 755 mmHg 57%
    13:00 +35°C° 0.1 mm 1 mps 755 mmHg 52%
    14:00 +34°C° 0.5 mm 1 mps 754 mmHg 55%
    15:00 +33°C° 0.5 mm 1 mps 754 mmHg 58%
    16:00 +33°C° 0.5 mm 1 mps 754 mmHg 60%
    17:00 +31°C° 0.2 mm 2 mps 754 mmHg 67%
    18:00 +30°C° 0.2 mm 2 mps 755 mmHg 73%
    19:00 +29°C° 0.2 mm 2 mps 755 mmHg 79%
    20:00 +28°C° 0.1 mm 2 mps 756 mmHg 80%
    21:00 +28°C° 0.1 mm 2 mps 756 mmHg 82%
    22:00 +27°C° 0.1 mm 2 mps 756 mmHg 84%
    23:00 +27°C° 0.1 mm 2 mps 756 mmHg 85%
    Show more